www.pogodaiklimat.ru
ПОГОДА в Ахвазе
Время
(UTC), дата
09 10.10
12 10.10
15 10.10
18 10.10
21 10.10
00 11.10
03 11.10
06 11.10
09 11.10
12 11.10
15 11.10
18 11.10
21 11.10
00 12.10
03 12.10
06 12.10
09 12.10
12 12.10
15 12.10
18 12.10
21 12.10
00 13.10
03 13.10
06 13.10
09 13.10
12 13.10
15 13.10
18 13.10
21 13.10
00 14.10
03 14.10
06 14.10
09 14.10
12 14.10
15 14.10
18 14.10
21 14.10
00 15.10
03 15.10
06 15.10
09 15.10
12 15.10
15 15.10
18 15.10
21 15.10
00 16.10
03 16.10
06 16.10
09 16.10
12 16.10
15 16.10
18 16.10
21 16.10
00 17.10
03 17.10
Ветер
(напр.,м/с)
Видим. Явления Облачность Т
(С)
Тd
(С)
f
(%)
Тe
(С)
Тes
(С)
Комфортность P
(гПа)
Po
(гПа)
Тmin
(С)
Tmax
(С)
R
(мм)
R24
(мм)
S
(см)
Ю 3 10 км ясно +40.1 +9.5 16 +38 +49 очень
жарко
1008.8 1006.4 666
Ю 2 10 км ясно +42.2 +8.1 13 +40 +45 очень
жарко
1007.4 1005.0
ЮЗ 1 10 км ясно +31.9 +16.2 39 +35 +35 очень
душно
1007.7 1005.2 +42.4
В 1 10 км ясно +29.5 +13.7 38 +31 +31 жарко 1008.6 1006.1
Ю 1 8000 м мгла ясно +27.4 +13.0 41 +29 +29 жарко 1008.5 1006.0
ЮВ 2 8000 м мгла ясно +26.2 +14.7 49 +29 +29 жарко 1008.9 1006.4
В 1 8000 м мгла 1/0
[Ac trans]
+23.7 +16.0 62 +27 +27 жарко 1009.7 1007.2 +23.5 666
Ю 4 10 км ясно +33.5 +22.0 51 +42 +47 опасность
перегрева
1011.4 1008.9
ЮВ 3 10 км 1/0
[Ac trans]
+38.4 +16.1 27 +40 +50 очень
душно
1010.0 1007.5 666
ЮЗ 2 10 км ясно +40.3 +18.3 28 +44 +49 опасность
перегрева
1008.0 1005.6
ЮЗ 1 10 км ясно +34.5 +24.5 56 +47 +47 опасность
перегрева
1007.7 1005.3 +40.9
В 1 10 км ясно +30.7 +18.1 47 +35 +35 очень
душно
1008.3 1005.8
СЗ 1 7000 м мгла ясно +27.1 +18.1 58 +32 +32 очень
душно
1008.2 1005.7
ЮЗ 1 7000 м мгла ясно +26.3 +19.7 67 +32 +32 очень
душно
1007.7 1005.3
С 1 4000 м мгла ясно +25.4 +21.1 77 +32 +32 очень
душно
1008.9 1006.4 +25.3
З 1 5000 м мгла ясно +33.8 +21.6 49 +42 +50 опасность
перегрева
1009.7 1007.2
СВ 1 7000 м мгла ясно +37.5 +20.4 37 +43 +58 опасность
перегрева
1008.7 1006.2 666
СЗ 1 8000 м мгла ясно +39.6 +16.5 26 +42 +47 опасность
перегрева
1006.7 1004.3
ЮЗ 1 8000 м мгла ясно +34.2 +17.0 36 +37 +37 очень
душно
1007.2 1004.8 +40.3
ЮЗ 1 8000 м мгла ясно +30.6 +17.0 44 +34 +34 очень
душно
1008.6 1006.1
ЮЗ 1 10 км ясно +27.2 +13.2 42 +29 +29 жарко 1008.7 1006.2
СВ 1 8000 м мгла ясно +26.6 +14.7 48 +29 +29 жарко 1009.1 1006.7
Ю 1 5000 м мгла ясно +24.8 +18.7 69 +30 +30 душно 1009.5 1007.1 +24.0 666
Ю 1 5000 м мгла ясно +32.7 +17.7 41 +37 +44 очень
душно
1011.5 1009.0
З 2 6000 м мгла 3/0
[Ci fib]
+38.0 +13.3 23 +38 +50 очень
жарко
1010.8 1008.4 666
СЗ 3 7000 м мгла 6/0
[Ci sp]
+38.7 +11.7 20 +38 +41 очень
жарко
1009.7 1007.3
СЗ 1 7000 м мгла 5/0
[Ci fib]
+33.2 +11.7 27 +33 +33 жарко 1010.5 1008.0 +39.3 666
СВ 2 7000 м мгла 3/0
[Ci fib]
+29.7 +12.6 35 +31 +31 жарко 1012.0 1009.5
С 1 7000 м мгла 3/0
[Ci fib]
+27.6 +15.3 47 +30 +30 жарко 1012.0 1009.5
ЮВ 2 7000 м мгла ясно +25.2 +14.4 51 +28 +28 жарко 1012.1 1009.6
СВ 2 4000 м мгла 1/0
[Ci fib]
+24.3 +15.5 58 +27 +27 жарко 1013.2 1010.7 +23.2 666
В 2 5000 м мгла ясно +31.6 +20.2 51 +38 +45 очень
душно
1014.8 1012.3
З 2 6000 м мгла ясно +38.3 +14.8 25 +39 +52 опасность
солнечного
удара
1013.9 1011.4
СЗ 2 7000 м мгла 3/0
[Ac trans]
+39.4 +12.3 20 +39 +43 очень
жарко
1012.1 1009.6
С 1 8000 м мгла 1/0
[Ac trans]
+33.5 +16.4 36 +36 +36 очень
душно
1012.2 1009.7 +40.3
С 1 8000 м мгла ясно +31.7 +14.4 35 +33 +33 жарко 1013.3 1010.8
З 1 8000 м мгла ясно +26.0 +15.1 51 +29 +29 душно 1013.4 1010.9
С 1 7000 м мгла ясно +23.4 +13.6 54 +27 +27 душно 1012.9 1010.4
СВ 1 7000 м мгла 1/0
[Ac trans]
+22.3 +12.6 54 +25 +25 комфорт 1013.0 1010.5 +21.3 666
Ю 1 5000 м мгла 4/0
[Ac trans]
+31.7 +20.9 53 +39 +45 очень
душно
1014.8 1012.4
СЗ 1 6000 м мгла 3/0
[Ac trans]
+38.2 +11.3 20 +37 +49 очень
жарко
1013.9 1011.5 666
СЗ 3 10 км 1/1 1200 м
[Cu hum]
+38.7 +6.4 14 +36 +40 очень
жарко
1012.2 1009.7
З 3 10 км ясно +34.2 +3.9 15 +31 +31 жарко 1011.7 1009.2 +39.8
З 2 10 км ясно +27.7 +5.9 25 +27 +27 жарко 1012.5 1010.0
В 1 10 км ясно +25.7 +6.4 29 +25 +25 комфорт 1013.0 1010.6
штиль 0 10 км ясно +18.9 +9.1 53 +19 +19 тепло 1012.6 1010.1
Ю 1 8000 м мгла ясно +18.9 +9.1 53 +21 +21 комфорт 1013.0 1010.5 +17.9 666
ЮВ 1 7000 м мгла ясно +31.4 +7.8 23 +30 +37 жарко 1014.8 1012.3
З 2 10 км 3/0
[Ci fib]
+37.0 +2.9 12 +34 +45 очень
жарко
1013.9 1011.4
СЗ 2 10 км 4/0
[Ci fib]
+37.2 +4.2 13 +34 +38 очень
жарко
1012.4 1009.8
СЗ 2 10 км 4/0
[Ac trans]
+32.2 +10.5 26 +32 +32 жарко 1012.5 1010.0 +37.9
С 1 10 км 3/0
[Ci fib]
+24.2 +20.5 80 +30 +30 очень
душно
1013.5 1011.0
штиль 0 10 км 3/0
[Ci fib]
+21.3 +10.2 49 +23 +23 комфорт 1012.9 1010.4
штиль 0 10 км ясно +19.2 +11.0 59 +20 +20 тепло 1012.9 1010.4
СВ 1 7000 м мгла 1/0
[Ac trans]
+20.6 +11.5 56 +24 +24 комфорт 1013.4 1010.9 +18.9
Местоположение метеостанции Ахваз (Иран): широта 31.33 долгота 48.67 высота над уровнем моря 22 м.
В архиве по умолчанию представлена погода в Ахвазе за последнюю неделю. Архивные данные за месяц целиком и за предыдущие месяцы, начиная с января 2011 года, Вы можете получить, выбрав интересующий диапазон дат из раскрывающегося списка и нажав кнопку "Найти!".
*Определитесь, кто Вы:
Внимание! Время в таблицах - всемирное. Для получения местного времени необходимо прибавить поправку, которая равна 3.5 ч.
Смотрите также архив погоды в соседних городах и на ближайших метеорологических станциях:
Партнеры нашего сайта:      
Пояснения к столбцам:
  • Ветер - указаны скорость ветра в м/с - средняя за 10 мин, порывы в срок и между сроками (в фигурных скобках) и направление, откуда дует ветер: С - северный,
  • СВ - северо-восточный, В - восточный, ЮВ - юго-восточный, Ю - южный, ЮЗ - юго-западный, З - западный, СЗ - северо-западный.
  • Видимость - горизонтальная дальность видимости в метрах или километрах. При видимости от 1 до 10 км при отсутствии осадков обычно наблюдается дымка, при ухудшении видимости до 1 км и менее - туман. В сухую погоду видимость может ухудшаться дымом, пылью или мглою.
  • Явления - указаны атмосферные явления, наблюдавшиеся в срок или в последний час перед сроком; фигурными скобками обозначены явления, наблюдавшиеся между сроками (за 1-3 часа до срока); квадратными скобками обозначены град или гололедные отложения с указанием их диаметра в мм.
  • Облачность - указаны через наклонную черту общая и нижняя облачность в баллах и высота нижней границы облаков в метрах; квадратными скобками обозначены формы облаков: Ci - перистые, Cs - перисто-слоистые, Cc - перисто-кучевые, Ac - высококучевые, As - высокослоистые, Sc - слоисто-кучевые, Ns - слоисто-дождевые, Cu - кучевые, Cb - кучево-дождевые. Подробнее классификацию облаков см. в Атласе облаков (PDF).
  • T - Температура воздуха - температура, измеренная на высоте 2 м над землей.
  • Td - Температура точки росы - температура, при понижении до которой содержащийся в воздухе водяной пар достигнет насыщения.
  • f - Относительная влажность воздуха - влажноcть воздуха, измеренная на высоте 2 м над землей.
  • Te - Эффективная температура - температура, которую ощущает одетый по сезону человек в тени. Характеристика душности погоды. При расчете учитывается влияние влажности воздуха и скорости ветра на теплоощущения человека.
  • Tes - Эффективная температура на солнце - температура, которую ощущает человек, с поправкой на солнечный нагрев. Характеристика знойности погоды. Зависит от высоты солнца над горизонтом, облачности и скорости ветра. Ночью, в пасмурную погоду, а также при ветре 12 м/с и более поправка равна нулю.
  • P - Атмосферное давление - приведенное к уровню моря атмосферное давление.
  • Po - Атмосферное давление - измеренное на уровне метеостанции атмосферное давление.
  • Tmin - Минимальная температура - минимум температуры воздуха на высоте 2 м над землей.
  • Tmax - Максимальная температура - максимум температуры воздуха на высоте 2 м над землей.
  • R - Количество осадков - Количество выпавших осадков за период времени, мм. При наведении курсора мыши на число - период времени, за который выпало указанное количество осадков.
  • R24 - Количество осадков - Количество выпавших осадков за 24 часа, мм.
  • S - Снежный покров - Высота снежного покрова, см. При наведении курсора мыши на число - состояние снежного покрова и степень покрытия местности в баллах.